Regional Weather Roundup
Issued by NWS

Home | Current Version | Previous Version | Graphics & Text | Print | Product List | Glossary On
Versions: 1 2 3 4 5 6 7 8 9 10 11 12 13 14 15 16 17 18 19 20 21 22 23 24 25 26 27 28 29 30 31 32 33 34 35 36 37 38 39 40 41 42 43 44 45 46 47 48 49 50
000
ASUS43 KFSD 252010
RWRSD

WEATHER ROUNDUP FOR SOUTH DAKOTA
NATIONAL WEATHER SERVICE SIOUX FALLS SD
300 PM CDT SAT OCT 25 2014

NOTE: "FAIR" INDICATES FEW OR NO CLOUDS BELOW 12,000 FEET WITH NO
SIGNIFICANT WEATHER AND/OR OBSTRUCTIONS TO VISIBILITY.


SDZ001>005-009-010-012>017-252100-
NORTHWEST AND NORTH CENTRAL SOUTH DAKOTA

CITY           SKY/WX    TMP DP  RH WIND       PRES   REMARKS
BUFFALO          N/A     66  32  28 S18G28    29.95F
FAITH            N/A     65  33  30 S18       30.06F
MOBRIDGE       SUNNY     65  26  23 S5        30.07F
$$

SDZ012>016-024>037-041>051-057-063-072>074-252100-
SOUTHWEST AND SOUTH CENTRAL SOUTH DAKOTA

CITY           SKY/WX    TMP DP  RH WIND       PRES   REMARKS
RAPID CTY ARPT SUNNY     65  34  31 S17G23    30.05F
PIERRE         SUNNY     66  29  24 MISG      30.08F
CUSTER         SUNNY     67  30  25 SW8       30.11F
ELLSWORTH AFB  SUNNY     65  34  31 S18G25    30.03F
PHILIP         SUNNY     68  30  24 SE12      30.06F
PINE RIDGE     SUNNY     69  39  33 VRB5      30.06F
SPEARFISH      FAIR      66  39  37 E5        30.03F
WINNER         FAIR      70  26  19 SE12      30.09F
$$

SDZ004>011-016>023-039-040-252100-
NORTHEAST SOUTH DAKOTA

CITY           SKY/WX    TMP DP  RH WIND       PRES   REMARKS
ABERDEEN       SUNNY     66  31  27 N3        30.11F
WATERTOWN      SUNNY     63  29  27 N10       30.11F
SISSETON         N/A     63  28  26 N15       30.09F
$$

SDZ017-020-022-023-036>040-048>070-252100-
SOUTHEAST SOUTH DAKOTA

CITY           SKY/WX    TMP DP  RH WIND       PRES   REMARKS
SIOUX FALLS    SUNNY     68  31  25 CALM      30.11F
HURON          SUNNY     67  28  23 NE5       30.10F
CHAMBERLAIN    SUNNY     68  29  23 SE7       30.09F HAZE
MITCHELL       SUNNY     67  33  28 CALM      30.11F
YANKTON        SUNNY     68  34  28 NE8       30.10F
$$

ABBREVIATIONS USED IN REMARKS
   TC - TEMPERATURE IN CELSIUS
  WCI - WIND CHILL INDEX
   HX - HEAT INDEX
  VSB - VISIBILITY




USA.gov is the U.S. government's official web portal to all federal, state and local government web resources and services.